This is the latest recevied weather packets stored in our database for station/object N3TTT-13. If no packets are shown the sender has not sent any weather packets the latest 10 day(s).
| Time | Temp. | Humidity | Pressure | Rain* | Wind** | Luminosity | Snow |
|---|---|---|---|---|---|---|---|
| 1777574781 | 18.33° C | 63% | 1007.5 hPa | 0 mm | - | 167 W/m² | - |
| 1777574479 | 19.44° C | 61% | 1007.2 hPa | 0 mm | - | 182 W/m² | - |
| 1777574175 | 20° C | 60% | 1007.3 hPa | 0 mm | - | 550 W/m² | - |
| 1777573870 | 20° C | 61% | 1007.8 hPa | 0 mm | - | 622 W/m² | - |
| 1777573565 | 18.33° C | 62% | 1007.5 hPa | 0 mm | - | 703 W/m² | - |
| 1777573261 | 18.89° C | 62% | 1007.5 hPa | 0 mm | - | 227 W/m² | - |
| 1777572958 | 19.44° C | 62% | 1007.6 hPa | 0 mm | - | 200 W/m² | - |
| 1777572654 | 18.33° C | 64% | 1007.7 hPa | 0 mm | - | 722 W/m² | - |
| 1777572353 | 18.33° C | 61% | 1007.6 hPa | 0 mm | - | 240 W/m² | - |
| 1777572050 | 18.33° C | 62% | 1007.8 hPa | 0 mm | - | 271 W/m² | - |
| 1777571750 | 18.89° C | 62% | 1007.8 hPa | 0 mm | - | 792 W/m² | - |
| 1777571448 | 18.33° C | 61% | 1007.9 hPa | 0 mm | - | 814 W/m² | - |
| 1777571144 | 18.33° C | 63% | 1007.8 hPa | 0 mm | - | 241 W/m² | - |
| 1777570840 | 17.78° C | 63% | 1008 hPa | 0 mm | - | 191 W/m² | - |
| 1777570536 | 17.78° C | 65% | 1008.1 hPa | 0 mm | - | 291 W/m² | - |
| 1777570233 | 17.78° C | 64% | 1008.2 hPa | 0 mm | - | 281 W/m² | - |
| 1777569927 | 17.78° C | 64% | 1008.1 hPa | 0 mm | - | 159 W/m² | - |
| 1777569624 | 17.22° C | 65% | 1008.3 hPa | 0 mm | - | 190 W/m² | - |
| 1777569321 | 17.78° C | 66% | 1008.4 hPa | 0 mm | - | 135 W/m² | - |
| 1777569017 | 19.44° C | 66% | 1008 hPa | 0 mm | - | 212 W/m² | - |
| 1777568713 | 17.78° C | 67% | 1008 hPa | 0 mm | - | 290 W/m² | - |
| 1777568411 | 18.33° C | 65% | 1008.2 hPa | 0 mm | - | 643 W/m² | - |
| 1777568108 | 18.33° C | 65% | 1008 hPa | 0 mm | - | 194 W/m² | - |
| 1777567804 | 18.33° C | 62% | 1008 hPa | 0 mm | - | 734 W/m² | - |
| 1777567501 | 17.78° C | 67% | 1008 hPa | 0 mm | - | 720 W/m² | - |
* Rain latest hour (hover to see other rain measurements)
** Current wind speed in m/s (hover to see current wind gust speed)